Stations météo

réclame
Mon MeteoGroup
Arkona, Allemagne (10091): Température de l'air & dewpoint: 16.10.2019 11:00:00 - 22.10.2019 11:00:00 (CEST)Arkona, Allemagne (10091): Température de l'air 5cm & Température de l'air -5cm: 16.10.2019 11:00:00 - 22.10.2019 11:00:00 (CEST)Arkona, Allemagne (10091): Température de l'air -20cm & Température de l'air -100cm: 16.10.2019 11:00:00 - 22.10.2019 11:00:00 (CEST)Arkona, Allemagne (10091): water temperature: 16.10.2019 11:00:00 - 22.10.2019 11:00:00 (CEST)Arkona, Allemagne (10091): Vitesse du vent & gusts: 16.10.2019 11:00:00 - 22.10.2019 11:00:00 (CEST)Arkona, Allemagne (10091): Direction du vent: 16.10.2019 11:00:00 - 22.10.2019 11:00:00 (CEST)Arkona, Allemagne (10091): reduced air pressure: 16.10.2019 11:00:00 - 22.10.2019 11:00:00 (CEST)Arkona, Allemagne (10091): visibility: 16.10.2019 11:00:00 - 22.10.2019 11:00:00 (CEST)Arkona, Allemagne (10091): Ensoleillement: 16.10.2019 11:00:00 - 22.10.2019 11:00:00 (CEST)Arkona, Allemagne (10091): Quantités de précipitations: 16.10.2019 11:00:00 - 22.10.2019 11:00:00 (CEST)
Date & Time tt [°C] td [°C] tt 5cm [°C] tt -5cm [°C] tt -20cm [°C] tt -100cm [°C] tw [°C] ff [km/h] ff [knt] fx [km/h] fx [knt] dd ppp [hPa] vv [km] sd [min] rr [mm]
22.10.2019 11:00:00 12,7 9,4 13,4 11,6 11,6 12,9 11,8 27 15 36 19 SW 1021,7 23 60 0,0
22.10.2019 10:00:00 11,7 9,6 11,1 10,2 11,7 12,9 11,8 19 11 29 16 SW 1021,1 30 60 0,0
22.10.2019 09:00:00 10,3 10,0 9,6 10,1 11,8 12,9 11,8 19 11 24 13 SW 1021,5 10 37 0,0
22.10.2019 08:00:00 10,3 10,3 9,5 10,6 11,9 12,9 11,8 18 10 28 15 SW 1020,8 3,5 0 0,0
22.10.2019 07:00:00 11,2 11,2 10,7 11,2 11,9 12,9 11,8 22 12 26 14 SW 1020,4 0,6 0 0,0
22.10.2019 06:00:00 11,4 11,4 11,4 11,2 11,9 12,9 11,7 18 10 26 14 SW 1020,3 0,1 0 0,0
22.10.2019 05:00:00 11,1 11,1 10,9 11,0 12,0 12,9 11,7 16 8 22 12 SSW 1020,2 0,3 0 0,0
22.10.2019 04:00:00 11,1 11,1 11,1 10,9 12,1 12,9 11,7 19 10 21 12 SSW 1020,4 0,1 0 0,0
22.10.2019 03:00:00 10,8 10,8 10,7 11,0 12,2 12,9 11,7 13 7 19 11 SW 1020,4 0,1 0 0,0
22.10.2019 02:00:00 10,9 10,9 10,6 10,7 12,4 12,9 11,7 18 10 19 11 SW 1020,3 0,1 0 0,0
22.10.2019 01:00:00 11,5 11,5 10,3 11,1 12,5 12,9 11,8 17 9 25 14 WSW 1020,3 0,8 0 0,0
22.10.2019 00:00:00 11,9 11,6 10,8 11,7 12,6 12,9 11,8 21 12 26 14 WSW 1019,7 2,5 0 0,0
21.10.2019 23:00:00 13,0 12,6 12,0 12,5 12,7 12,9 11,8 16 9 24 13 WSW 1019,5 3,7 0 0,0
21.10.2019 22:00:00 13,5 12,7 13,3 12,8 12,7 12,9 11,8 16 9 37 20 WSW 1019,5 7 0 0,0
21.10.2019 21:00:00 13,2 12,9 13,1 12,8 12,7 12,9 12,0 17 9 22 12 WSW 1019,5 2,9 0 0,0
21.10.2019 20:00:00 13,1 12,8 13,0 12,8 12,7 12,9 12,2 12 7 19 10 WSW 1019,1 3,9 0 0,0
21.10.2019 19:00:00 12,7 12,5 12,7 12,8 12,7 12,9 12,1 10 6 17 9 WSW 1018,3 3,4 0 0,0
21.10.2019 18:00:00 12,7 12,5 12,7 12,9 12,7 12,9 11,9 9 5 29 16 WSW 1018,2 4,8 0 0,0
21.10.2019 17:00:00 12,7 12,4 12,7 13,3 12,7 12,9 12,0 16 8 25 14 E 1017,1 4,5 0 0,0
21.10.2019 16:00:00 12,8 12,3 13,1 13,6 12,6 12,9 12,2 23 12 38 21 SE 1018,3 13 0 0,0
21.10.2019 15:00:00 12,8 12,0 13,2 13,9 12,4 12,9 12,5 18 10 41 22 E 1018,0 20 7 0,0
21.10.2019 14:00:00 13,0 11,5 14,2 13,8 12,3 12,9 12,6 23 13 36 19 E 1018,1 38 1 0,0
21.10.2019 13:00:00 12,9 11,4 13,6 13,5 12,1 12,9 12,6 25 14 42 23 E 1018,4 34 0 0,0
21.10.2019 12:00:00 12,9 11,3 13,9 13,0 11,9 12,9 12,5 23 12 46 25 E 1018,2 45 13 0,0
21.10.2019 11:00:00 12,5 11,0 12,7 12,0 11,9 12,9 12,4 34 18 42 23 ENE 1018,2 40 2 0,0
21.10.2019 10:00:00 12,0 10,7 11,7 11,4 11,9 12,9 12,4 29 16 37 20 ENE 1017,9 41 0 0,0
21.10.2019 09:00:00 11,8 10,4 11,2 11,2 11,9 12,9 12,3 29 16 39 21 ENE 1017,7 57 0 0,0
21.10.2019 08:00:00 11,6 10,4 11,0 11,2 12,0 12,9 12,2 29 16 44 24 ENE 1017,1 41 0 0,0
21.10.2019 07:00:00 11,6 10,6 11,1 11,2 12,0 12,9 12,1 38 20 45 25 ENE 1016,1 31 0 0,0
21.10.2019 06:00:00 11,2 10,9 10,9 11,3 12,1 12,9 12,1 31 17 38 20 NE 1015,9 10 0 0,1
21.10.2019 05:00:00 10,9 10,4 10,6 11,3 12,2 12,9 12,0 25 13 33 18 ENE 1016,2 26 0 0,3
21.10.2019 04:00:00 10,5 10,0 10,4 11,4 12,2 12,9 12,0 23 12 33 18 ENE 1016,5 14 0 0,9
21.10.2019 03:00:00 10,7 10,2 10,6 11,6 12,3 12,9 11,8 19 10 31 17 NNE 1016,1 12 0 1,3
21.10.2019 02:00:00 11,1 10,2 10,7 11,7 12,4 12,9 11,9 21 12 34 18 NE 1015,4 34 0 0,2
21.10.2019 01:00:00 11,1 10,4 10,8 11,8 12,5 12,9 11,9 23 13 32 18 NE 1014,8 15 0 0,3
21.10.2019 00:00:00 11,1 10,0 10,7 12,0 12,5 12,9 11,9 17 9 28 15 NNE 1014,8 46 0 0,1
20.10.2019 23:00:00 11,7 11,4 11,5 12,2 12,6 12,9 11,9 6 3 22 12 NNE 1015,2 4,0 0 0,2
20.10.2019 22:00:00 11,9 11,8 11,7 12,4 12,7 12,9 11,9 10 6 17 9 NE 1014,0 0,5 0 0,6
20.10.2019 21:00:00 12,2 12,2 12,1 12,5 12,7 12,9 11,9 5 3 7 4 NE 1014,2 0,7 0 0,1
20.10.2019 20:00:00 12,2 12,1 12,1 12,7 12,8 12,9 11,9 7 4 11 6 ENE 1013,6 3,3 0 0,0
20.10.2019 19:00:00 12,3 12,1 12,1 12,9 12,8 12,9 11,9 4 2 8 5 N 1013,6 4,8 0 0,0
20.10.2019 18:00:00 12,4 11,9 12,3 13,3 12,8 12,9 12,0 4 2 11 6 NNW 1012,6 12 0 0,0
20.10.2019 17:00:00 13,1 12,2 13,1 13,7 12,7 12,9 12,0 5 3 13 7 SW 1012,3 33 0 0,0
20.10.2019 16:00:00 13,1 12,0 13,4 14,2 12,6 12,9 12,0 6 3 13 7 SSW 1012,1 27 0 0,0
20.10.2019 15:00:00 13,0 11,8 13,8 14,4 12,4 12,9 11,8 10 5 13 7 S 1011,9 31 0 0,0
20.10.2019 14:00:00 12,8 11,7 13,5 14,5 12,1 12,9 11,9 9 5 15 8 S 1011,7 28 0 0,0
20.10.2019 13:00:00 12,7 11,7 13,5 14,1 11,8 12,9 11,9 13 7 16 9 S 1011,3 30 3 0,0
20.10.2019 12:00:00 12,6 11,9 13,1 13,3 11,6 12,9 11,8 11 6 14 8 SSW 1011,4 23 2 0,0
20.10.2019 11:00:00 12,0 11,5 12,2 11,7 11,5 12,9 11,8 10 6 17 9 SW 1011,3 19 0 0,1
20.10.2019 10:00:00 11,5 11,0 11,3 11,2 11,5 12,9 11,8 14 7 19 10 SW 1010,9 24 0 0,0
20.10.2019 09:00:00 11,3 10,8 11,0 10,9 11,5 12,9 11,8 14 8 21 11 SW 1009,8 18 0 0,0
20.10.2019 08:00:00 11,2 10,6 10,9 10,7 11,6 12,9 11,8 14 8 16 9 SSW 1009,4 29 0 0,0
20.10.2019 07:00:00 11,2 10,6 10,6 10,8 11,6 12,9 - 12 6 19 11 SW 1008,8 30 0 0,0
20.10.2019 06:00:00 11,5 10,7 11,1 10,9 11,6 12,9 - 14 8 25 13 SSW 1008,8 32 0 0,0
20.10.2019 05:00:00 11,7 10,8 11,3 10,9 11,7 13,0 - 19 10 26 14 SSW 1008,7 39 0 0,0
20.10.2019 04:00:00 11,7 10,7 11,3 10,9 11,7 13,0 11,9 19 11 25 13 SSW 1008,4 39 0 0,0
20.10.2019 03:00:00 12,1 10,9 11,5 11,2 11,8 13,0 - 20 11 28 15 SSW 1008,2 39 0 0,0
20.10.2019 02:00:00 12,4 10,8 12,0 11,4 11,8 13,0 11,9 24 13 33 18 SSW 1008,2 46 0 0,0
20.10.2019 01:00:00 12,5 11,0 12,2 11,4 11,8 13,0 11,9 24 13 34 19 S 1008,1 52 0 0,0
20.10.2019 00:00:00 12,5 10,9 12,3 11,5 11,8 13,0 12,0 26 14 37 20 S 1007,9 41 0 0,0
19.10.2019 23:00:00 12,6 11,1 12,3 11,4 11,8 13,0 12,0 29 15 44 24 S 1007,8 43 0 0,0
19.10.2019 22:00:00 12,6 11,2 12,2 11,3 11,8 13,0 - 31 17 46 25 S 1007,8 28 0 0,0
19.10.2019 21:00:00 12,7 11,1 12,3 11,2 11,9 13,0 11,9 26 14 39 21 S 1007,9 43 0 0,0
19.10.2019 20:00:00 12,6 10,8 12,1 11,1 12,0 13,0 11,9 23 12 36 19 S 1008,0 48 0 0,0
19.10.2019 19:00:00 12,6 10,2 11,7 11,4 12,1 13,0 11,9 22 12 35 19 S 1008,2 51 0 0,0
19.10.2019 18:00:00 13,1 9,7 12,3 11,9 12,1 13,0 11,9 23 12 36 19 S 1008,3 51 0 0,0
19.10.2019 17:00:00 13,4 9,7 12,9 12,7 12,0 13,0 11,9 26 14 33 18 S 1007,9 50 0 0,0
19.10.2019 16:00:00 13,2 9,8 13,2 13,4 11,8 13,0 - 22 12 31 17 S 1008,2 52 55 0,0
19.10.2019 15:00:00 13,6 9,2 14,1 13,7 11,5 13,0 - 23 12 34 18 S 1008,4 48 60 0,0
19.10.2019 14:00:00 13,3 8,4 14,4 13,6 11,1 13,0 11,9 25 14 34 19 S 1008,7 43 60 0,0
19.10.2019 13:00:00 12,9 8,6 14,0 12,4 10,9 13,0 11,9 29 16 37 20 S 1008,7 45 48 0,0
19.10.2019 12:00:00 12,1 8,0 13,3 11,1 10,7 13,0 11,9 26 14 34 18 S 1008,8 56 26 0,0
19.10.2019 11:00:00 10,6 7,6 10,5 9,9 10,6 13,0 11,9 26 14 36 19 SSW 1009,1 75 0 0,0
19.10.2019 10:00:00 10,1 7,5 9,9 9,1 10,7 13,0 11,8 32 17 45 24 SSW 1009,0 49 0 0,0
19.10.2019 09:00:00 9,6 7,4 9,1 8,5 10,8 13,0 11,8 30 16 40 22 SSW 1009,0 53 0 0,0
19.10.2019 08:00:00 9,0 7,2 8,1 8,3 10,9 13,0 11,8 30 16 37 20 SSW 1008,8 60 0 0,0
19.10.2019 07:00:00 9,3 7,1 8,5 8,4 11,1 13,0 11,9 31 17 41 22 SSW 1008,7 53 0 0,0
19.10.2019 06:00:00 9,2 7,2 8,3 8,5 11,3 13,0 11,8 31 17 41 22 SW 1008,6 51 0 0,0
19.10.2019 05:00:00 9,3 7,2 8,4 8,7 11,5 12,9 11,9 31 17 40 22 SSW 1008,2 61 0 0,0
19.10.2019 04:00:00 9,2 7,5 8,2 8,9 11,7 12,9 - 29 16 39 21 SSW 1008,0 48 0 0,0
19.10.2019 03:00:00 9,5 7,6 8,5 9,1 11,9 12,9 - 27 15 41 22 SW 1007,8 62 0 0,0
19.10.2019 02:00:00 9,5 7,6 8,4 9,4 12,2 12,9 11,9 30 16 48 26 SW 1007,8 53 0 0,0
19.10.2019 01:00:00 9,9 8,0 8,9 9,8 12,5 12,9 12,0 30 16 45 24 SW 1007,4 50 0 0,0
19.10.2019 00:00:00 10,1 8,1 9,1 10,2 12,7 12,9 12,2 30 16 44 24 SW 1007,1 45 0 0,0
18.10.2019 23:00:00 10,4 8,5 9,4 10,9 12,9 12,9 12,8 33 18 47 26 SW 1006,5 60 0 0,0
18.10.2019 22:00:00 10,9 8,9 10,2 11,6 13,1 12,9 12,8 32 17 45 25 SW 1005,9 56 0 0,0
18.10.2019 21:00:00 10,4 8,9 9,9 12,1 13,3 12,9 12,8 25 13 58 32 SSW 1005,6 67 0 2,1
18.10.2019 20:00:00 10,6 8,9 10,0 13,1 13,4 12,9 12,8 48 26 90 48 SW 1006,4 4,6 0 1,0
18.10.2019 19:00:00 14,0 12,9 13,6 13,3 13,5 12,9 12,7 18 10 34 19 S 1004,6 31 0 0,0
18.10.2019 18:00:00 14,1 12,8 13,7 14,0 13,5 12,9 12,5 21 12 32 18 SSE 1005,1 30 26 0,0
18.10.2019 17:00:00 14,2 12,9 14,5 14,4 13,5 12,9 12,5 25 13 32 17 SSE 1005,6 26 10 0,0
18.10.2019 16:00:00 14,1 12,5 13,9 14,9 13,3 12,9 12,5 16 9 34 18 S 1006,3 36 8 0,0
18.10.2019 15:00:00 14,1 12,6 14,2 15,5 13,1 12,9 12,7 15 8 27 15 S 1006,9 24 34 0,0
18.10.2019 14:00:00 14,1 12,8 14,3 14,7 13,0 12,9 12,7 21 12 27 15 S 1007,6 27 0 0,0
18.10.2019 13:00:00 14,2 12,7 14,7 14,3 12,8 12,9 12,7 21 11 31 17 S 1008,4 30 1 0,0
18.10.2019 12:00:00 13,8 13,0 13,8 14,3 12,6 12,9 12,7 19 11 30 16 SSW 1009,0 28 28 0,0
18.10.2019 11:00:00 13,2 12,7 13,4 13,4 12,5 12,9 12,7 24 13 33 18 S 1008,9 16 15 0,0
18.10.2019 10:00:00 12,6 12,5 12,8 12,7 12,5 12,9 12,7 21 11 35 19 S 1009,1 8 0 0,0
18.10.2019 09:00:00 12,4 12,3 12,4 12,4 12,5 12,9 12,6 22 12 29 16 S 1009,4 4,0 0 0,1
18.10.2019 08:00:00 12,5 12,5 12,5 12,3 12,5 12,9 12,7 18 10 28 15 S 1009,4 6 0 0,0
18.10.2019 07:00:00 12,5 12,4 12,4 12,3 12,5 12,9 12,6 15 8 24 13 SSE 1009,6 13 0 0,3
18.10.2019 06:00:00 12,5 12,5 12,4 12,3 12,5 12,9 12,6 17 9 24 13 S 1010,1 3,3 0 1,1
18.10.2019 05:00:00 12,5 12,5 12,5 12,3 12,6 12,9 12,5 18 10 23 13 S 1010,5 3,4 0 2,1
18.10.2019 04:00:00 12,8 12,4 12,6 12,3 12,6 12,9 12,5 17 9 23 12 S 1010,9 4,5 0 0,2
18.10.2019 03:00:00 12,9 12,4 12,7 12,2 12,6 12,9 12,3 14 7 19 10 S 1011,1 22 0 0,0
18.10.2019 02:00:00 12,8 12,5 12,5 12,3 12,7 12,9 12,3 9 5 22 12 S 1011,5 13 0 0,0
18.10.2019 01:00:00 12,7 12,4 12,3 12,1 12,8 12,9 12,7 16 8 23 12 SSW 1011,8 12 0 0,0
18.10.2019 00:00:00 12,9 12,4 12,4 12,3 12,9 12,9 12,8 20 11 25 13 SSW 1011,9 17 0 0,0
17.10.2019 23:00:00 13,0 12,5 12,4 12,7 12,9 12,9 12,5 17 9 25 13 SW 1011,9 23 0 0,0
17.10.2019 22:00:00 13,4 12,7 13,1 13,0 13,0 12,9 - 18 10 25 14 SSW 1012,0 31 0 0,0
17.10.2019 21:00:00 13,5 12,7 13,3 13,1 13,0 12,9 12,3 18 10 22 12 SW 1011,9 32 0 0,0
17.10.2019 20:00:00 13,5 12,9 13,3 13,3 13,0 12,9 12,2 17 9 24 13 SW 1011,9 30 0 0,0
17.10.2019 19:00:00 13,9 13,1 13,6 13,6 13,0 12,9 12,2 18 10 24 13 SW 1011,5 18 0 0,0
17.10.2019 18:00:00 14,1 12,9 14,0 13,9 12,9 12,9 12,3 17 9 24 13 SW 1011,2 35 0 0,0
17.10.2019 17:00:00 14,3 13,0 14,4 14,3 12,8 12,9 12,3 17 9 36 19 SW 1010,9 43 0 0,0
17.10.2019 16:00:00 14,2 12,9 14,4 14,3 12,7 12,9 12,7 25 14 34 18 SW 1010,5 44 0 0,0
17.10.2019 15:00:00 13,5 12,9 13,7 14,2 12,5 12,9 12,8 30 16 36 20 SSW 1010,4 6 0 0,0
17.10.2019 14:00:00 14,1 12,7 14,2 14,4 12,2 12,9 12,7 21 12 35 19 SW 1010,1 8 0 0,0
17.10.2019 13:00:00 14,5 12,8 15,3 14,6 11,9 12,9 12,7 24 13 36 19 SSW 1010,0 45 1 0,0
17.10.2019 12:00:00 13,9 12,8 14,3 13,5 11,7 12,9 12,7 25 14 34 19 SSW 1010,0 38 0 0,0
17.10.2019 11:00:00 13,0 12,3 13,0 12,3 11,5 12,9 12,7 27 15 34 18 SSW 1009,9 32 0 0,0
17.10.2019 10:00:00 11,9 11,6 11,9 11,4 11,5 12,9 12,6 23 12 31 17 SSW 1009,7 12 0 0,4
17.10.2019 09:00:00 11,5 11,4 11,4 10,9 11,4 12,9 12,6 21 11 28 15 SSW 1009,5 4,8 0 0,3
17.10.2019 08:00:00 11,3 10,8 11,0 10,5 11,4 12,9 12,5 21 11 29 16 S 1009,2 11 0 0,0
17.10.2019 07:00:00 10,6 10,3 10,4 10,1 11,5 12,9 12,5 18 10 24 13 SSW 1009,1 8 0 0,0
17.10.2019 06:00:00 10,0 9,8 9,7 9,5 11,7 12,9 12,5 17 9 26 14 SSW 1009,4 7 0 0,0
17.10.2019 05:00:00 9,5 9,3 8,7 9,7 11,9 12,9 12,5 20 11 27 14 SW 1009,3 5 0 0,0
17.10.2019 04:00:00 9,9 9,7 9,2 10,1 12,1 12,9 12,5 21 11 25 13 SW 1009,5 6 0 0,0
17.10.2019 03:00:00 10,1 9,8 9,4 10,7 12,3 12,9 12,4 19 10 27 15 SW 1009,5 6 0 0,0
17.10.2019 02:00:00 11,1 10,8 10,1 11,3 12,3 12,9 12,7 21 11 36 19 WSW 1009,3 5 0 0,0
17.10.2019 01:00:00 12,3 11,6 11,7 12,0 12,4 12,9 12,7 28 15 42 23 WSW 1008,9 6 0 0,0
17.10.2019 00:00:00 12,6 12,2 12,4 12,3 12,4 12,9 12,7 32 18 43 23 WSW 1008,5 4,6 0 0,0
16.10.2019 23:00:00 12,6 12,3 12,4 12,3 12,4 12,9 12,6 32 18 45 24 W 1008,2 9 0 0,5
16.10.2019 22:00:00 12,4 11,9 12,2 12,3 12,4 12,9 12,5 35 19 46 25 W 1007,8 17 0 0,1
16.10.2019 21:00:00 12,5 12,3 12,4 12,4 12,4 12,9 12,4 36 20 44 24 W 1007,2 11 0 0,9
16.10.2019 20:00:00 12,6 12,5 12,5 12,3 12,4 12,9 12,4 32 17 42 23 W 1006,9 8 0 1,2
16.10.2019 19:00:00 12,5 12,3 12,4 12,4 12,3 12,9 12,4 33 18 46 25 W 1006,4 9 0 0,3
16.10.2019 18:00:00 12,6 12,5 12,5 12,4 12,3 12,9 12,4 34 18 45 24 W 1005,8 10 0 0,5
16.10.2019 17:00:00 12,3 12,2 12,4 12,3 12,3 12,9 12,3 26 14 33 18 W 1005,4 3,8 0 0,8
16.10.2019 16:00:00 11,9 11,8 11,9 12,3 12,3 12,9 12,3 19 11 26 14 NW 1005,1 4,8 0 1,8
16.10.2019 15:00:00 11,8 11,7 12,0 12,4 12,3 12,9 12,3 13 7 18 10 WSW 1005,2 6 0 0,3
16.10.2019 14:00:00 11,3 11,3 11,6 12,3 12,2 12,9 12,3 6 3 16 9 NW 1005,1 1,0 0 0,0
16.10.2019 13:00:00 11,0 11,0 11,3 12,3 12,2 12,9 12,4 12 7 19 10 NW 1004,9 0,5 0 0,0
16.10.2019 12:00:00 11,3 11,3 11,7 12,3 12,1 12,9 12,3 5 3 17 9 NNW 1004,4 0,2 0 0,0
16.10.2019 11:00:00 11,4 11,4 11,6 12,2 12,1 12,9 12,3 13 7 24 13 NNE 1004,3 0,1 0 0,0

tt = Température de l'air
td = dewpoint
tt 5cm = Température de l'air 5cm
tt -5cm = Température de l'air -5cm
tt -20cm = Température de l'air -20cm
tt -100cm = Température de l'air -100cm
tw = water temperature
ff = Vitesse du vent
fx = gusts
dd = Direction du vent
ppp = reduced air pressure
vv = visibility
sd = Ensoleillement
rr = Quantités de précipitations

stations d'obs. à proximité